Regina,

1:56 AM CST on April 22, 2018 (GMT -0600)
Regina

Weather History for CYQR - November, 2012

Change the Weather History Date:

Monday, November 12, 2012

  Actual Average Record
Temperature  
Mean Temperature 0 °F -  
Max Temperature 14 °F 26 °F 68 °F (1999)
Min Temperature -13 °F 7 °F -13 °F (2012)
Degree Days  
Heating Degree Days 64    
Moisture  
Dew Point -4 °F    
Average Humidity 75    
Maximum Humidity 92    
Minimum Humidity 48    
Precipitation  
Precipitation 0.00 in 0.02 in - ()
Sea Level Pressure  
Sea Level Pressure 30.18 in    
Wind  
Wind Speed 5 mph ()    
Max Wind Speed 9 mph    
Max Gust Speed -    
Visibility 14.1 miles    
Events      
Averages and records for this station are not official NWS values.
T = Trace of Precipitation, MM = Missing Value Source: Averaged Metar Reports

Daily Weather History Graph

Daily Weather History Graph

Search for Another Location

Airport or City:

Astronomy

Nov. 12, 2012 Rise Set
Actual Time 8:08 AM CST 5:16 PM CST
Civil Twilight 7:33 AM CST 5:51 PM CST
Nautical Twilight 6:53 AM CST 6:31 PM CST
Astronomical Twilight 6:15 AM CST 7:09 PM CST
Moon 6:32 AM CST (11/12) 4:25 PM CST (11/12)
Length of Visible Light 10h 18m
Length of Day
9h 07m
Waning Crescent, 2% of the Moon is Illuminated
Nov 12
Waning Crescent
Nov 13
New
Nov 20
First Quarter
Nov 28
Full
Dec 6
Last Quarter

Hourly Weather History & Observations

Time (CST) Temp. Windchill Dew Point Humidity Pressure Visibility Wind Dir Wind Speed Gust Speed Precip Events Conditions
12:00 AM -9 °F - -16 °F 60% 30.19 in 9 mi West 9.2 mph - -  
12:00 AM -9.4 °F -26.8 °F -14.8 °F 77% 30.19 in 15.0 mi West 9.2 mph - N/A   Clear
1:00 AM -9.4 °F -26.8 °F -16.6 °F 71% 30.21 in 15.0 mi NW 9.2 mph - N/A   Clear
2:00 AM -7.6 °F -18.8 °F -13.0 °F 77% 30.20 in 15.0 mi WNW 4.6 mph - N/A   Clear
3:00 AM -13.0 °F -28.6 °F -18.4 °F 77% 30.21 in 15.0 mi WNW 6.9 mph - N/A   Clear
4:00 AM -11.2 °F - -18.4 °F 70% 30.20 in 15.0 mi West 2.3 mph - N/A   Clear
5:00 AM -9.4 °F -22.7 °F -16.6 °F 71% 30.20 in 15.0 mi West 5.8 mph - N/A   Clear
6:00 AM -10 °F - -19 °F 49% 30.19 in 9 mi South 3.5 mph - -  
6:00 AM -13.0 °F -22.7 °F -20.2 °F 70% 30.19 in 15.0 mi South 3.5 mph - N/A   Scattered Clouds
7:00 AM -4.0 °F -16.3 °F -9.4 °F 78% 30.19 in 15.0 mi SSE 5.8 mph - N/A   Mostly Cloudy
8:00 AM -2.2 °F -12.5 °F -7.6 °F 78% 30.19 in 15.0 mi SE 4.6 mph - N/A   Mostly Cloudy
9:00 AM -2.2 °F -15.6 °F -9.4 °F 71% 30.19 in 15.0 mi SE 6.9 mph - N/A   Overcast
10:00 AM 3.2 °F -7.8 °F -2.2 °F 78% 30.17 in 15.0 mi SSE 5.8 mph - N/A   Overcast
11:00 AM 5.0 °F -6.9 °F -2.2 °F 72% 30.18 in 15.0 mi SE 6.9 mph - N/A   Mostly Cloudy
12:00 PM 7 °F - -1 °F 56% 30.16 in 9 mi SSE 6.9 mph - -  
12:00 PM 6.8 °F -4.8 °F -9.4 °F 48% 30.17 in 15.0 mi SSE 6.9 mph - N/A   Mostly Cloudy
1:00 PM 10.4 °F 0.8 °F 3.2 °F 73% 30.16 in 15.0 mi South 5.8 mph - N/A   Scattered Clouds
2:00 PM 12.2 °F 2.9 °F 6.8 °F 79% 30.15 in 15.0 mi SW 5.8 mph - N/A   Partly Cloudy
3:00 PM 14.0 °F 5.1 °F 8.6 °F 79% 30.14 in 15.0 mi SW 5.8 mph - N/A   Partly Cloudy
4:00 PM 14.0 °F 5.1 °F 6.8 °F 73% 30.15 in 15.0 mi WSW 5.8 mph - N/A   Partly Cloudy
5:00 PM 10.4 °F -1.5 °F 5.0 °F 79% 30.16 in 15.0 mi WSW 8.1 mph - N/A   Partly Cloudy
6:00 PM 9 °F - 7 °F 85% 30.16 in 9 mi SW 3.5 mph - -  
6:00 PM 8.6 °F 2.0 °F 6.8 °F 92% 30.16 in 15.0 mi SW 3.5 mph - N/A   Partly Cloudy
7:00 PM 8.6 °F - 6.8 °F 92% 30.17 in 15.0 mi Calm Calm - N/A   Clear
8:00 PM 5.0 °F -5.6 °F 1.4 °F 85% 30.18 in 15.0 mi West 5.8 mph - N/A   Clear
9:00 PM 8.6 °F - 6.8 °F 92% 30.17 in 15.0 mi West 2.3 mph - N/A   Mostly Cloudy
10:00 PM 6.8 °F - 5.0 °F 92% 30.17 in 15.0 mi Calm Calm - N/A   Mostly Cloudy
11:00 PM 10.4 °F - 6.8 °F 85% 30.19 in 15.0 mi South 2.3 mph - N/A   Mostly Cloudy